Location: ??
(35.5052°N, 139.7262°E)
Time: 18:20:10
(UTC+00:00)

Cosmos 2208 Rocket - Pass Details

Date: 20 June 2021
Orbit: 754 x 805 km, 74.0° (Epoch: 30 July)

Event Time Altitude Azimuth Distance (km) Brightness Sun altitude
Exits shadow 16:21:09 82° 262° (W) 812 3.9 -26.6°
Maximum altitude 16:21:16 83° 286° (WNW) 811 4.0 -26.6°
Drops below altitude 10° 16:26:44 10° 16° (NNE) 2,388 7.5 -26.1°
Sets 16:29:09 0° 17° (NNE) 3,324 8.6 -25.9°
